Theta_e
313 313 313 312 312 312 312 312 312 311 310 310 311 311 311 311 310 310 310 310 310 309 309 309 309 308 308 308 308 308 307 306 306 306 305 305 305 305 305 304 304 304 304 303 303 303 303 303 303 303 303 303 303 304 304 304 304 304 304 304 304 305 305 305 306 306 306 306 306 306 306 307 307 307 307 308 307 307 307 307 308 308 308 308 308 308
312 312 312 312 312 311 311 311 312 311 310 311 310 310 310 310 310 309 309 309 309 308 308 308 308 308 308 308 307 307 306 305 305 305 304 304 304 304 304 304 304 304 303 303 303 303 302 302 302 302 302 302 302 302 302 302 302 302 302 303 303 303 303 303 304 304 304 304 304 305 305 305 305 305 305 305 305 305 306 306 306 306 306 306 307 307
310 310 310 310 310 310 310 310 311 311 311 310 310 309 309 309 308 308 308 307 308 308 307 307 307 306 306 306 306 305 305 304 304 304 304 304 304 304 304 303 303 303 303 302 302 302 302 301 301 301 300 300 300 300 300 300 300 300 300 300 300 300 300 300 300 300 301 301 301 301 301 301 301 301 302 302 302 302 303 303 303 304 304 304 305 306
309 308 308 309 309 309 309 309 309 309 309 309 308 308 308 307 307 307 307 307 307 306 306 305 305 304 304 303 303 303 303 303 303 302 302 302 302 302 302 302 302 301 301 301 300 300 300 299 299 299 298 298 298 298 298 298 297 297 297 297 297 297 297 297 297 297 297 297 297 297 297 297 297 298 298 298 298 298 299 299 300 300 301 302 302 303
308 307 307 307 308 308 307 307 307 308 308 308 307 307 306 306 306 306 306 306 305 304 303 302 301 301 300 300 300 300 300 301 301 301 301 300 300 300 300 300 299 299 299 298 298 298 298 297 297 297 297 297 296 296 296 296 296 296 296 296 296 296 296 296 296 295 295 295 295 295 295 295 295 295 295 295 295 295 296 296 296 297 298 298 299 300
307 306 306 306 306 306 306 306 306 306 306 306 306 306 306 305 305 304 303 303 302 301 300 299 298 297 297 297 297 297 297 297 297 298 297 297 297 297 297 297 297 297 297 297 296 296 296 296 296 296 295 295 295 295 295 295 295 295 295 295 295 295 295 295 294 294 294 294 294 294 294 294 294 294 294 294 294 294 294 294 294 295 295 296 297 298
306 304 304 304 304 304 305 305 305 306 305 305 305 304 304 304 303 302 301 300 299 298 297 296 296 295 295 294 295 295 294 294 294 294 294 294 294 294 294 294 294 294 294 294 295 294 294 294 294 294 294 294 294 294 294 294 294 294 294 294 294 293 293 293 293 293 292 292 292 292 292 292 292 292 292 293 293 293 293 293 294 294 294 295 296 297
305 303 302 302 302 302 302 303 304 305 304 303 303 302 300 300 300 299 298 298 297 296 295 294 294 294 293 293 293 293 293 293 293 293 293 293 292 292 292 293 293 293 293 293 293 293 294 294 294 294 294 294 294 294 294 293 293 293 293 292 292 292 292 291 291 291 292 292 292 292 292 292 292 293 293 293 293 293 294 294 294 295 295 295 296 297
303 302 301 301 301 301 300 300 302 303 303 302 300 299 298 298 297 296 296 295 295 294 294 293 293 293 293 293 293 292 292 292 293 293 293 293 292 292 293 293 293 293 293 293 293 293 293 293 293 293 293 293 293 293 292 292 292 292 291 291 291 291 291 291 291 292 292 292 292 293 293 293 293 293 293 294 294 294 294 295 295 295 295 296 296 297
301 301 301 300 299 300 301 300 299 300 302 301 299 298 298 298 297 296 296 295 294 293 293 293 293 294 293 293 293 292 292 292 293 293 293 293 293 293 293 293 293 293 294 294 293 293 293 293 293 293 292 292 292 292 291 291 291 291 291 291 291 291 291 291 291 291 292 292 292 292 293 293 293 293 293 294 294 294 294 294 294 294 295 295 296 296
298 298 299 299 298 298 299 299 298 298 299 299 297 296 296 296 297 297 297 297 295 294 293 293 293 293 293 293 292 292 292 293 293 293 293 293 294 294 294 293 293 293 293 293 293 293 292 292 292 292 292 291 291 291 291 291 290 290 290 290 290 290 290 290 290 290 291 291 291 292 292 292 292 293 293 293 293 293 293 293 294 294 294 294 294 295
297 297 297 298 298 297 297 297 297 296 297 296 295 295 295 294 295 296 297 298 297 296 294 293 293 293 293 293 292 292 293 293 293 292 292 292 293 293 292 292 292 292 292 292 292 292 291 291 291 291 291 290 290 290 290 290 289 289 289 289 289 289 289 289 289 289 290 290 290 291 291 291 292 292 292 292 292 293 293 293 293 293 293 293 293 294
296 296 296 297 297 297 297 296 295 294 294 295 296 298 298 296 294 295 295 297 297 296 295 294 293 293 293 293 293 293 293 292 292 292 292 292 291 291 291 291 291 291 291 291 291 291 291 291 291 290 290 289 289 289 289 288 288 288 288 288 288 288 288 288 288 288 289 289 289 290 290 290 291 291 291 292 292 292 292 292 292 292 293 292 293 293
297 297 296 297 297 298 297 296 296 296 296 296 298 299 298 296 295 294 294 295 295 294 294 293 293 293 293 293 294 293 293 292 292 291 291 292 291 291 291 291 290 290 290 290 290 290 290 290 289 289 289 288 288 288 288 288 288 288 288 288 287 287 287 288 288 288 288 289 289 289 290 290 290 291 291 291 291 292 292 292 292 292 292 292 292 293
298 298 298 298 299 299 298 297 297 297 298 297 297 297 296 295 294 294 294 295 295 294 293 293 294 294 293 293 293 294 293 292 291 291 292 292 291 291 291 291 290 290 290 290 290 290 289 289 288 288 288 288 288 287 287 287 287 287 287 287 287 287 287 287 288 288 289 289 289 289 290 290 290 291 291 291 291 292 292 292 292 292 292 292 292 292
299 298 298 299 299 299 298 297 297 297 297 296 295 295 294 294 293 293 294 295 295 294 294 295 296 296 294 293 293 293 292 291 291 291 292 292 292 291 291 291 290 289 290 289 289 289 289 288 288 288 288 287 287 287 287 287 287 287 287 287 287 287 288 288 288 289 289 289 289 290 290 290 291 291 291 291 291 291 291 291 292 292 292 292 292 292
298 297 298 299 299 299 298 296 295 296 295 295 294 294 294 294 294 293 294 295 295 295 295 296 297 298 298 294 292 292 291 291 290 291 291 292 292 291 291 291 290 289 289 289 289 288 288 288 288 287 287 287 287 287 287 287 287 287 287 287 288 288 288 288 289 289 289 290 290 290 291 291 291 291 291 291 291 291 291 291 291 291 291 291 291 291
297 296 297 297 299 299 297 295 295 295 294 294 293 293 293 293 293 293 294 294 295 295 295 296 296 298 298 298 294 290 291 291 290 290 291 291 292 291 291 290 289 288 288 289 289 288 288 287 287 287 287 287 287 287 287 287 287 287 287 288 288 288 288 289 289 289 290 290 290 290 290 290 290 290 290 290 290 290 290 290 290 290 290 290 291 291
296 296 296 297 298 298 296 295 295 294 294 294 293 293 292 292 292 293 293 294 294 295 296 296 296 296 296 297 294 291 291 290 290 290 291 291 291 291 290 289 288 288 288 288 288 288 288 287 287 287 287 287 287 287 287 286 286 287 287 288 288 288 289 289 289 289 289 289 289 289 289 289 289 289 289 289 289 289 289 289 289 290 290 290 290 290
297 296 296 296 297 297 296 296 295 295 295 294 294 293 293 292 292 292 293 293 293 294 294 295 295 295 295 294 293 291 291 290 290 290 290 291 291 290 289 288 288 288 288 289 288 288 287 287 287 287 287 287 287 287 286 286 286 287 287 288 288 288 289 288 288 288 288 288 288 288 288 288 288 288 288 288 288 288 289 289 289 289 289 290 290 290
297 297 296 296 296 297 297 297 296 295 295 295 294 294 293 293 293 292 293 293 293 293 293 293 294 294 293 293 291 290 290 289 289 289 290 290 290 290 289 288 288 287 288 288 288 288 287 287 287 287 286 287 287 286 286 286 286 287 288 288 288 288 288 287 287 287 286 286 286 286 287 287 287 287 287 288 288 288 288 289 289 289 289 289 289 289
297 297 297 296 296 296 297 297 296 296 296 295 295 294 294 294 293 293 293 292 292 292 292 293 293 293 292 291 290 289 289 289 288 288 289 290 290 290 289 288 287 287 288 288 288 288 287 287 287 287 286 286 286 286 286 286 287 287 288 288 288 287 287 286 286 285 285 285 286 286 286 287 287 287 287 288 288 288 288 288 288 289 289 289 289 289
296 297 297 296 295 295 296 296 296 296 296 295 295 294 294 294 294 294 294 292 292 292 292 292 291 291 290 290 289 289 289 288 288 287 288 289 291 291 288 288 287 287 288 288 288 288 287 287 287 287 287 286 286 286 286 286 287 287 288 287 287 286 286 285 285 285 285 285 285 286 286 287 287 287 287 287 287 288 288 288 288 288 288 288 288 288
295 296 296 295 295 295 296 296 296 296 296 295 295 294 294 294 294 294 293 292 292 291 291 290 290 290 290 289 289 289 288 288 287 287 288 289 290 290 289 287 287 287 288 288 288 287 287 287 287 287 287 286 286 286 285 286 286 287 287 287 286 285 285 285 284 284 285 285 285 286 286 286 286 287 287 287 287 287 287 287 287 288 288 288 288 288
295 295 295 295 295 295 295 295 295 295 295 295 295 294 294 294 293 293 292 292 291 290 290 290 290 291 291 290 290 289 288 288 287 287 287 288 289 289 289 287 287 287 287 287 287 287 287 287 287 287 287 287 286 286 285 286 286 286 286 286 285 285 285 284 284 284 284 284 285 285 285 285 286 286 286 287 287 287 287 287 287 287 287 287 287 287
295 295 295 295 295 295 295 295 295 295 294 294 294 294 293 293 292 292 291 290 290 290 290 291 292 292 291 290 290 289 288 287 287 286 287 287 288 289 288 287 287 287 287 287 287 287 287 287 287 288 288 287 286 286 285 285 286 286 286 285 285 285 285 284 284 284 284 284 284 284 284 285 285 286 286 286 286 286 287 287 287 287 287 287 287 287
295 294 294 294 294 294 294 294 294 294 293 293 293 293 292 292 291 291 290 290 290 290 291 291 292 292 291 290 289 289 288 287 287 286 286 286 287 288 288 288 287 287 287 287 287 287 287 287 288 288 288 287 286 286 285 285 285 285 285 285 285 285 284 284 284 284 283 283 283 284 284 284 285 285 286 286 286 286 286 286 286 286 286 286 286 286
294 294 293 293 293 293 293 293 293 293 292 292 292 292 292 291 291 291 291 290 290 290 290 291 292 292 291 291 290 289 289 288 287 286 286 286 287 288 288 287 287 286 287 287 287 287 287 287 288 288 288 287 286 285 285 285 285 285 285 285 285 285 284 284 284 284 284 283 283 284 284 284 284 285 285 285 285 286 286 286 286 286 286 286 286 286
293 292 292 292 292 292 292 292 292 292 292 292 291 291 291 291 291 292 292 291 290 290 290 290 290 291 290 290 290 289 289 288 287 286 285 286 286 287 287 287 287 287 287 287 287 288 288 288 288 287 287 286 286 285 285 285 285 285 285 285 285 285 284 284 284 284 284 284 284 284 283 284 284 284 285 285 285 285 285 286 285 286 286 286 286 286
292 292 292 292 292 292 292 292 292 291 291 291 291 291 291 291 291 291 291 290 290 290 290 290 290 290 289 289 289 289 289 288 287 286 285 286 287 287 287 287 287 287 287 287 288 288 289 289 288 287 286 285 285 285 285 285 285 285 285 285 285 285 284 284 284 284 284 284 284 284 284 283 283 284 284 284 284 285 285 285 285 285 285 285 286 286
292 292 292 291 291 291 291 291 291 291 291 291 291 291 290 290 290 290 290 290 289 290 290 290 290 289 289 289 289 290 289 288 286 286 285 286 286 287 287 287 287 287 287 287 287 288 289 289 288 287 286 286 286 286 286 286 286 286 286 285 285 285 284 284 284 284 284 284 284 284 284 283 283 283 283 284 284 284 284 284 284 285 285 285 285 286
293 293 292 292 291 291 291 291 291 291 291 291 291 291 291 290 290 290 290 289 289 289 290 290 289 289 289 289 289 290 290 288 286 286 285 286 286 287 287 287 287 287 287 287 287 287 288 289 289 288 287 287 287 287 287 286 286 286 286 285 285 285 284 284 284 284 284 284 284 284 284 284 283 283 283 283 283 283 283 283 284 284 285 285 285 285
293 292 292 291 291 291 291 291 291 291 291 291 291 291 291 291 291 290 290 289 289 289 289 289 289 289 289 288 288 289 289 288 287 286 286 286 286 286 286 287 287 287 287 287 286 287 287 287 287 287 287 287 287 287 287 287 286 286 285 285 285 284 284 284 284 284 284 284 284 284 284 284 284 283 283 283 283 283 283 283 283 284 284 285 285 285
292 292 292 291 291 291 291 291 291 291 291 291 292 292 291 291 291 290 290 289 289 289 289 289 289 289 288 288 288 288 288 288 287 286 286 286 286 286 286 286 287 287 287 287 287 287 287 287 287 287 287 287 287 287 287 287 286 286 285 285 284 284 284 284 284 284 284 284 284 284 284 284 284 284 284 283 283 283 283 283 284 284 284 284 285 285
292 292 291 291 291 291 290 290 290 290 291 291 291 291 291 291 290 290 289 289 289 288 288 288 288 288 288 288 288 288 288 288 287 287 286 286 286 286 286 287 287 287 287 286 286 286 287 287 287 287 287 287 287 287 287 286 286 285 285 284 284 284 284 284 284 284 284 284 284 284 284 284 284 284 284 284 284 284 284 284 284 284 284 284 284 284
292 292 292 291 291 291 290 290 290 290 290 290 290 290 290 290 289 289 289 289 288 288 288 288 288 288 288 288 288 288 288 288 287 287 286 286 286 286 287 287 286 286 286 286 286 286 286 286 286 286 286 286 286 287 287 286 286 286 285 285 285 285 285 285 285 285 285 285 284 284 284 284 284 284 284 284 284 284 284 283 283 283 283 283 283 284
292 292 292 291 291 291 291 290 290 290 290 290 290 289 289 289 289 289 288 288 288 288 288 288 288 287 287 287 287 287 287 287 287 287 287 286 286 286 287 286 286 286 286 286 286 286 286 286 285 285 286 286 286 287 287 286 286 286 286 286 286 286 285 285 285 285 285 285 284 284 284 284 284 284 284 284 284 283 283 283 283 283 283 283 283 283
293 292 292 292 291 291 291 291 290 290 290 290 290 289 289 289 289 289 288 288 288 288 288 288 287 287 287 287 287 287 287 287 287 287 286 286 286 286 286 286 286 286 285 285 285 285 285 285 286 286 286 286 286 286 286 286 286 286 286 286 286 286 286 285 285 285 285 285 285 284 284 284 284 284 284 283 283 283 283 283 283 283 283 283 283 284
292 292 292 292 291 291 291 291 290 290 290 290 290 289 289 289 289 289 288 288 288 288 288 288 287 287 287 286 286 286 286 286 286 286 286 286 285 285 285 285 285 285 285 285 285 285 285 285 285 285 285 285 286 286 286 286 286 286 286 286 286 286 286 286 286 285 285 285 285 285 284 284 284 283 283 283 283 283 283 283 283 283 283 283 283 283
292 292 292 292 291 291 291 291 291 290 290 290 290 289 289 289 289 288 288 288 287 287 287 287 287 286 286 286 286 286 286 286 286 286 286 285 285 285 285 285 285 285 285 285 284 284 285 285 285 285 285 285 285 285 285 285 285 285 285 285 286 286 286 286 285 285 285 285 285 285 284 284 283 283 283 283 283 283 283 283 283 283 283 283 283 283
292 292 292 292 291 291 291 291 290 290 290 290 290 289 289 289 288 288 288 287 287 287 287 286 286 286 286 285 285 285 285 285 285 285 285 285 285 285 284 284 284 284 284 284 285 284 284 285 285 285 285 285 285 285 285 285 285 285 285 285 285 285 285 285 285 285 285 285 284 284 284 284 283 283 283 283 283 283 283 283 283 283 283 283 283 283
292 292 292 292 291 291 291 290 290 290 290 289 289 289 289 289 288 288 288 287 287 287 286 286 286 286 286 286 286 285 285 285 285 285 285 285 284 284 284 284 284 284 284 284 285 285 285 285 285 285 285 285 285 285 285 285 285 285 285 285 285 285 285 285 285 285 285 285 284 284 284 284 284 283 283 283 283 283 283 283 283 283 283 283 283 283
292 292 292 292 291 291 290 290 290 290 289 289 289 289 289 289 288 288 288 288 287 287 287 286 286 287 287 286 286 286 286 286 285 285 285 285 285 284 284 284 285 285 285 285 285 285 285 285 285 285 285 285 285 285 285 285 285 285 285 285 285 285 285 285 285 285 285 285 284 284 284 284 283 283 283 283 283 283 282 282 282 282 283 283 283 283
292 291 291 291 291 291 290 290 290 289 289 289 289 289 289 289 289 288 288 288 288 288 288 287 287 287 287 287 286 286 286 286 286 286 285 285 285 285 285 285 285 285 285 285 285 285 284 284 284 284 284 284 284 284 284 284 284 284 284 284 284 285 285 285 285 285 284 284 284 284 283 283 283 283 283 283 282 282 282 282 282 282 282 282 283 283
291 291 291 291 291 290 290 290 290 290 289 289 289 289 289 289 289 289 288 288 288 288 288 287 287 287 287 286 286 287 287 287 287 286 286 285 285 285 285 285 285 285 285 284 284 284 284 284 284 284 284 284 284 284 284 284 284 284 284 284 284 284 284 284 284 284 284 284 284 283 283 283 283 283 282 282 282 282 282 282 282 282 282 282 282 283
291 291 291 291 290 290 290 290 290 290 290 290 289 289 289 289 289 289 289 289 288 288 288 287 287 287 287 287 287 287 287 287 287 287 286 286 285 285 284 284 284 284 284 284 284 283 283 284 284 284 284 284 284 284 284 284 284 284 284 284 284 284 284 284 284 284 284 284 283 283 283 283 282 282 282 282 282 282 282 282 282 282 282 282 282 282
291 291 291 291 291 290 290 290 290 290 290 290 290 289 289 289 289 288 288 288 288 288 287 287 287 287 287 287 287 287 287 287 287 287 286 286 285 285 284 284 284 283 283 283 283 283 283 283 283 283 283 283 283 283 283 283 283 284 284 284 284 284 284 284 284 284 283 283 283 283 283 282 282 282 282 282 282 282 282 282 282 282 282 282 282 282
291 291 291 291 291 291 290 290 290 290 290 289 289 289 289 289 288 288 288 288 288 287 287 287 287 287 287 287 287 287 287 287 287 287 286 285 285 284 284 283 283 283 282 282 282 282 282 282 282 282 282 282 283 283 283 283 283 283 284 284 284 284 284 284 284 283 283 283 283 282 282 282 281 281 281 281 281 281 281 282 282 282 282 282 282 282
291 291 291 291 291 291 290 290 290 290 290 289 289 289 289 289 288 288 288 288 287 287 287 287 287 287 287 287 287 287 287 287 286 286 285 285 284 284 283 283 283 282 282 282 282 282 282 282 282 282 282 282 282 283 283 283 283 283 284 284 284 284 284 284 283 283 283 283 282 282 281 281 281 281 281 281 281 281 281 282 282 282 282 282 282 282
291 291 291 291 291 290 290 290 290 290 289 289 289 289 289 289 288 288 288 288 287 287 287 287 288 288 288 288 287 287 287 286 286 285 285 284 284 283 283 282 282 282 282 282 282 282 282 282 282 282 282 282 282 283 283 283 283 283 283 283 284 284 283 283 283 283 282 282 282 282 281 281 281 281 281 281 281 281 281 281 282 282 282 282 282 282
291 291 291 290 290 290 290 290 290 289 289 289 289 289 289 289 288 288 288 288 288 288 288 288 288 288 288 288 287 287 286 285 285 285 284 284 283 283 282 282 282 282 282 282 282 282 282 282 283 283 283 283 283 283 283 283 283 283 283 283 283 283 283 283 282 282 282 282 282 282 281 281 281 281 281 281 281 281 281 281 281 282 282 282 282 282
Wind_Speed
15 16 17 18 17 16 16 17 16 15 15 16 18 18 19 19 19 19 18 17 17 17 16 16 15 14 13 13 13 14 15 16 16 16 16 15 15 14 14 14 13 13 13 13 13 13 13 13 13 12 12 12 12 13 13 12 12 12 12 12 13 13 14 14 14 14 14 14 15 16 18 19 19 20 20 20 19 19 19 18 18 18 18 18 18 17
15 16 17 18 18 16 17 18 18 17 17 18 18 19 19 18 17 17 18 18 17 17 17 16 15 14 14 13 13 14 15 16 17 17 17 17 17 16 16 15 15 14 14 14 13 13 13 13 13 12 12 12 12 12 11 11 12 12 12 13 13 14 14 14 15 15 15 15 16 17 18 19 19 19 19 19 19 19 18 18 18 18 17 17 17 16
13 15 17 18 17 16 16 17 18 18 17 17 18 17 17 16 16 16 16 17 17 18 17 16 15 15 14 14 13 14 14 15 16 17 17 17 17 16 16 15 15 14 14 13 13 12 12 12 11 11 11 10 10 10 11 11 11 12 12 13 13 14 14 14 15 15 16 16 17 18 18 18 18 18 18 18 18 18 18 17 17 17 17 16 16 15
12 12 15 17 17 17 16 16 16 17 16 16 15 15 15 15 15 16 16 16 16 17 17 16 15 14 14 14 13 14 14 15 15 16 16 16 15 14 14 13 13 12 11 10 10 10 10 10 9 9 9 10 10 10 11 11 12 13 13 14 14 14 14 15 15 15 16 16 16 17 17 17 17 17 17 17 17 17 17 17 16 16 16 16 16 15
11 11 13 15 16 16 16 16 16 16 15 14 14 14 14 14 15 16 16 16 16 15 15 15 14 13 13 12 13 13 13 13 13 14 14 13 13 12 12 11 10 9 9 8 8 8 9 9 9 9 10 10 11 11 12 13 13 14 15 15 15 15 15 15 15 15 16 16 16 16 16 16 17 17 17 17 17 17 16 16 16 16 16 15 15 15
11 10 12 13 14 14 15 16 16 15 14 14 14 14 14 14 14 15 15 15 15 14 14 13 12 12 11 11 12 12 12 11 11 11 11 11 11 11 10 10 10 10 9 9 9 9 10 10 11 11 11 12 12 13 13 14 15 16 16 16 16 16 16 16 16 16 16 16 16 16 16 16 17 17 17 17 17 17 17 17 16 16 16 15 15 14
12 11 11 12 13 14 15 15 15 15 14 13 13 13 14 14 13 13 13 13 13 13 12 12 11 11 10 11 11 11 10 10 10 10 10 9 10 10 10 10 10 11 11 11 11 11 12 12 12 13 13 13 14 14 15 15 16 16 17 17 17 16 16 16 16 16 16 16 16 16 16 16 16 17 17 17 17 16 16 16 16 16 15 15 15 14
12 10 10 10 11 12 13 14 15 14 13 12 11 10 10 11 11 12 12 13 12 11 10 10 10 10 9 10 10 9 9 8 8 8 8 8 9 10 11 11 12 12 12 13 13 13 14 14 14 14 15 15 15 16 16 16 17 17 17 17 17 16 16 16 16 16 15 15 15 15 15 15 15 15 15 15 15 15 15 14 14 14 14 14 14 14
13 11 10 11 10 9 9 11 13 13 12 11 9 8 7 7 8 8 10 11 11 11 10 9 8 8 8 9 10 9 9 9 8 7 7 8 9 10 12 13 13 14 14 14 14 15 15 15 15 16 16 16 16 16 17 17 17 17 17 17 17 16 16 15 15 14 14 14 14 14 14 14 14 13 13 13 13 13 14 14 13 13 13 13 13 14
12 12 11 12 12 11 8 7 9 12 12 11 10 9 8 7 6 6 7 8 10 11 11 9 8 6 7 8 9 10 10 11 11 11 12 12 12 13 14 14 15 15 15 15 15 15 15 15 16 16 16 17 17 17 17 17 17 17 17 17 16 16 15 15 14 14 13 13 13 13 13 13 13 13 13 13 13 13 13 14 14 14 14 13 14 14
11 11 11 11 11 12 11 8 8 10 12 11 11 11 12 10 8 6 6 7 7 9 10 11 10 9 7 7 8 10 11 11 12 13 14 15 15 15 15 15 15 15 15 15 15 15 15 16 16 17 17 17 17 17 17 17 17 17 17 17 16 16 15 15 15 14 14 14 14 13 13 13 13 13 13 13 13 14 14 14 14 14 14 14 14 14
10 9 9 9 9 9 10 10 11 11 11 9 8 9 10 12 11 9 7 7 7 6 7 8 11 11 11 9 9 10 11 11 11 11 12 13 14 14 14 14 14 14 14 15 15 15 16 16 17 17 17 17 17 17 17 16 16 16 16 16 15 15 15 15 15 15 15 15 14 14 14 14 14 14 14 14 14 14 14 14 15 15 15 15 15 15
10 9 8 8 9 8 8 8 8 8 9 8 8 8 8 10 11 11 8 8 7 6 6 6 8 11 13 13 13 12 12 11 11 11 11 11 11 12 12 12 12 12 13 13 13 14 15 16 16 16 16 15 15 15 15 15 15 15 15 15 15 15 15 15 16 16 15 15 15 14 14 14 14 14 14 14 14 14 15 15 15 15 15 16 16 16
9 9 8 9 9 9 8 8 7 7 8 8 9 8 7 8 10 10 9 7 7 7 8 7 7 8 11 13 14 13 12 12 11 11 10 9 10 11 12 11 11 12 12 11 11 11 13 14 14 14 14 14 14 14 14 14 14 14 15 15 15 15 15 16 16 15 15 15 14 14 14 14 14 14 14 14 14 14 15 15 15 15 15 16 16 16
10 9 8 9 10 10 9 9 9 9 9 9 9 9 9 9 9 9 8 6 6 7 7 7 7 7 9 12 13 13 12 11 9 8 8 8 10 12 12 12 12 12 12 11 10 11 13 13 12 12 12 12 13 13 13 14 14 15 15 15 15 15 15 15 14 14 13 13 13 13 13 13 13 13 13 13 13 14 14 14 14 15 15 15 15 16
10 9 9 9 10 11 10 9 8 9 8 9 10 11 9 8 8 8 7 7 6 5 5 6 7 7 7 10 11 12 11 9 8 7 7 7 10 13 13 12 11 10 11 11 10 11 12 12 12 12 12 13 14 14 14 14 15 15 15 15 14 13 13 12 12 11 11 11 11 11 11 11 11 12 12 12 13 13 13 14 14 14 14 15 15 15
10 9 10 11 11 11 10 10 10 10 9 10 12 12 10 8 8 8 7 7 5 5 5 6 5 4 4 5 7 9 9 8 7 7 7 7 9 12 12 11 10 9 10 10 10 11 11 11 11 12 13 14 15 15 15 15 15 15 14 13 11 11 10 10 9 9 9 9 9 9 9 10 10 11 11 12 12 13 13 14 14 15 15 15 15 16
11 11 11 11 11 11 9 10 11 12 11 11 12 12 11 10 10 9 8 7 6 6 6 7 6 4 4 4 5 6 6 6 6 7 8 8 8 10 12 12 11 10 10 10 10 10 11 11 12 12 14 15 15 15 15 15 15 13 11 10 9 8 8 7 7 7 7 7 8 8 9 10 10 11 12 13 13 14 14 15 15 15 16 16 16 17
12 12 12 12 12 11 9 10 11 12 12 11 11 11 11 11 11 11 9 8 8 8 8 7 7 7 6 5 4 5 6 7 7 7 7 8 7 8 12 12 11 10 9 9 9 9 11 12 13 14 15 15 16 16 16 15 13 11 9 7 6 6 6 6 6 6 7 8 9 9 10 11 12 12 13 14 14 15 15 16 16 16 16 17 17 17
12 12 13 13 12 10 9 10 11 12 13 13 12 11 10 10 11 10 10 9 8 8 8 8 7 7 7 5 4 6 9 9 8 7 7 8 7 8 11 11 10 8 8 8 9 10 12 13 14 15 15 15 15 15 15 13 11 9 7 6 5 5 5 6 6 7 9 10 10 11 12 13 13 14 14 15 15 16 16 16 16 16 17 17 17 17
13 13 14 14 12 11 10 10 11 12 14 14 13 12 10 10 10 10 10 9 9 8 8 7 7 7 5 4 4 7 11 9 6 5 6 7 7 7 9 9 8 7 7 8 9 10 12 13 14 15 15 15 15 15 14 12 9 7 6 5 5 5 6 7 8 10 11 12 13 13 13 14 14 14 15 15 15 15 15 16 16 16 17 17 17 17
13 13 13 14 13 12 11 9 10 11 14 15 14 13 11 10 10 10 11 10 9 8 8 7 7 7 7 6 7 10 11 9 6 4 5 6 6 6 6 7 7 7 7 8 8 9 11 13 14 14 15 15 14 14 12 10 8 6 6 6 6 6 7 9 11 12 13 13 13 13 13 13 13 14 14 14 14 15 15 15 16 16 17 17 17 18
15 13 12 12 14 14 12 11 11 13 15 15 15 14 13 12 11 10 10 10 9 8 8 8 9 10 11 10 10 11 11 9 7 5 4 4 4 4 5 6 7 7 7 7 8 9 11 12 13 13 13 14 14 12 10 9 8 7 7 7 7 8 9 11 13 14 14 13 12 12 12 12 13 13 13 14 14 14 15 15 16 16 17 17 18 18
17 14 12 13 15 16 16 15 16 16 16 16 16 16 15 14 14 13 12 11 11 10 10 10 9 9 9 9 8 9 10 9 7 5 4 5 5 5 5 6 6 7 8 8 8 9 11 12 12 12 12 13 13 11 9 9 9 9 8 8 8 9 11 13 14 14 13 12 11 11 11 12 12 13 13 14 14 14 15 15 16 16 17 18 18 19
18 16 14 16 17 17 17 17 17 17 16 16 17 17 17 16 15 14 13 12 11 9 8 6 5 6 6 5 4 6 9 9 8 6 4 5 6 6 5 5 5 6 8 9 9 10 11 11 11 10 9 11 11 11 9 9 10 10 9 9 9 11 14 15 15 14 13 12 11 11 12 12 13 13 14 14 14 15 15 16 16 17 17 18 19 19
19 18 18 18 18 17 16 16 16 16 16 16 16 16 16 14 13 12 10 9 9 7 5 5 6 6 5 4 4 5 7 9 9 7 5 4 5 6 5 4 4 5 8 9 10 10 10 10 10 9 7 8 10 11 10 10 11 11 10 9 11 14 16 16 15 13 12 12 12 12 13 13 13 13 14 14 15 15 15 16 16 17 17 18 19 20
18 18 18 18 17 16 15 15 15 14 14 14 15 15 15 13 11 9 8 8 8 7 5 5 6 5 5 4 4 5 5 7 8 8 7 5 5 5 5 4 4 6 8 9 10 10 10 10 9 8 6 7 9 11 11 11 11 11 10 11 14 17 17 16 14 13 12 12 13 13 13 13 13 14 14 14 14 15 15 15 16 16 17 18 19 19
16 16 16 16 15 14 14 14 13 13 13 14 14 14 14 13 11 8 7 8 8 7 6 6 5 4 4 4 4 4 4 5 7 8 7 5 4 4 4 4 4 6 7 9 10 10 10 9 9 7 6 7 9 10 11 11 11 11 12 15 17 18 17 15 13 13 13 13 14 14 14 13 13 13 14 14 14 14 15 15 15 16 17 17 17 17
15 14 14 14 14 13 13 13 13 13 13 13 14 14 14 12 10 9 8 9 9 7 6 6 6 5 4 4 4 4 5 5 7 8 7 5 4 4 4 4 4 5 6 8 9 9 8 7 7 7 6 7 8 9 10 11 12 13 15 17 18 18 16 15 14 14 14 14 14 14 14 13 13 13 13 14 14 14 14 15 15 15 16 15 15 16
14 13 13 13 13 13 13 13 13 13 13 13 14 13 13 12 10 9 9 10 10 8 7 7 6 6 5 4 4 4 4 6 7 7 6 4 4 4 4 4 4 4 5 6 5 5 5 4 5 5 6 6 7 8 9 10 12 13 14 15 16 16 16 15 15 16 16 15 15 14 14 14 13 13 13 13 14 14 14 14 14 14 14 14 14 14
13 13 13 13 14 14 13 13 13 13 13 13 13 13 13 12 11 11 11 11 10 8 7 7 6 6 5 3 2 2 2 4 6 7 5 4 3 4 4 4 4 4 4 3 2 2 3 2 2 3 4 5 6 7 8 9 10 11 12 13 14 15 15 16 17 17 17 16 15 15 15 14 14 14 13 13 13 13 13 13 13 13 13 13 13 14
14 13 13 14 15 15 15 14 14 14 14 13 14 14 14 13 12 12 12 12 10 9 7 7 7 6 6 5 4 3 2 3 5 6 5 4 4 4 4 3 4 4 4 3 3 3 2 2 3 4 5 6 7 8 9 9 10 10 11 12 12 13 15 16 16 16 16 15 15 15 15 15 14 14 14 14 13 13 12 12 12 12 12 12 13 14
15 14 14 16 16 16 16 16 16 15 15 15 15 16 15 15 14 13 13 12 11 9 8 7 7 7 7 7 7 6 5 4 5 6 6 4 4 3 3 3 4 5 5 5 5 6 5 6 7 8 9 9 9 9 9 9 10 10 10 10 11 12 14 15 15 15 15 15 15 15 14 14 14 14 14 14 14 13 12 12 11 11 12 13 13 14
16 15 15 16 16 16 16 16 16 16 16 17 17 17 17 16 15 14 13 13 12 11 9 9 8 8 7 7 7 7 7 5 5 5 6 5 4 3 3 4 4 5 5 5 6 7 8 9 9 9 10 10 10 10 9 9 9 9 9 10 11 13 14 14 13 13 14 14 14 14 13 13 13 13 13 14 14 13 13 13 13 13 13 14 15 15
16 15 15 15 15 15 16 16 16 16 16 17 17 17 17 16 15 14 14 13 13 13 11 10 9 9 8 7 7 7 6 5 5 5 6 5 4 4 4 5 5 5 5 6 6 7 7 9 9 9 10 10 11 10 9 8 8 8 10 10 11 12 13 12 12 12 13 12 12 12 12 12 12 12 13 13 13 13 14 15 15 16 16 17 17 17
15 15 15 15 15 15 14 14 14 14 14 14 15 15 16 15 14 13 13 13 13 13 13 12 12 11 10 9 8 7 6 5 5 5 6 5 5 5 5 5 5 6 6 7 7 7 8 9 10 11 11 10 10 9 8 7 7 8 9 10 11 11 11 11 12 12 12 12 12 12 12 12 12 12 13 13 13 15 16 17 18 18 18 18 18 18
16 15 15 15 15 14 14 14 14 14 14 13 13 14 15 14 13 12 12 13 13 13 13 13 13 13 13 12 10 9 8 7 6 6 6 6 6 6 6 7 7 7 7 7 8 9 9 9 10 11 10 9 8 8 8 8 8 9 10 10 11 11 12 12 12 12 12 12 12 12 12 12 12 13 13 13 14 16 17 18 18 18 17 17 18 18
15 15 15 15 15 15 14 14 14 14 14 14 13 13 13 12 11 11 12 12 12 11 11 11 11 12 12 12 12 11 10 9 9 9 9 9 8 8 8 8 8 8 8 8 9 9 9 9 7 7 7 9 9 10 10 10 10 11 11 11 12 12 12 12 12 11 12 12 12 12 12 12 13 13 13 14 14 15 15 15 15 15 15 16 17 18
14 14 14 15 16 15 14 14 14 14 14 14 14 13 12 11 11 10 11 11 12 11 10 10 9 10 11 12 12 12 12 11 12 12 11 11 10 9 8 8 9 9 9 9 9 9 10 9 8 7 7 9 10 11 11 11 11 12 12 13 13 13 12 11 11 11 12 12 13 13 13 12 12 13 13 14 14 13 14 14 14 14 14 15 16 17
14 14 14 15 15 15 15 14 14 13 14 14 14 14 13 12 11 11 11 12 12 12 12 12 12 11 12 13 13 13 13 13 13 13 12 12 11 10 9 9 9 9 9 9 10 10 10 11 11 11 11 11 11 12 12 12 12 13 13 13 13 12 11 11 12 12 13 13 13 12 12 12 13 13 13 13 13 14 14 14 14 15 15 15 15 16
15 14 14 14 14 15 15 14 13 13 13 14 14 14 14 13 12 11 12 12 13 13 13 13 13 13 14 13 13 14 14 14 14 14 13 13 13 12 12 11 10 10 10 10 10 11 11 12 12 13 13 13 13 14 14 14 13 13 13 13 14 14 14 14 14 13 13 12 12 12 12 13 13 14 14 14 15 15 15 15 16 16 16 16 16 16
15 14 14 14 14 15 15 14 14 14 14 14 13 12 13 13 13 12 11 11 12 13 13 13 12 11 11 11 12 12 13 14 14 14 14 13 13 13 13 12 11 11 10 10 11 11 12 12 13 13 13 13 13 14 14 14 14 13 13 14 15 16 16 15 13 11 10 10 11 11 12 13 14 14 14 15 15 16 16 17 17 17 17 17 17 17
14 14 14 13 13 14 15 15 14 14 14 13 13 12 13 14 14 12 11 10 10 11 12 12 11 9 9 9 9 9 10 12 13 13 13 12 12 12 12 11 11 10 10 10 11 11 12 13 13 14 14 14 14 14 15 15 15 14 14 14 14 14 12 12 11 10 10 11 12 13 13 14 14 15 15 16 16 17 17 17 18 18 18 17 17 17
15 14 14 14 14 14 14 14 14 14 14 13 13 12 13 14 14 13 11 10 9 9 9 9 9 8 8 9 9 8 9 9 10 11 12 12 11 11 11 11 10 10 11 11 11 11 12 13 13 14 13 13 14 14 15 15 15 15 15 15 14 14 13 13 13 13 13 13 13 14 14 14 15 15 16 16 17 17 17 17 17 17 17 17 17 17
14 14 14 14 14 13 13 13 14 14 14 14 13 13 12 13 13 13 11 10 9 9 8 8 7 7 8 8 8 8 8 8 8 9 10 10 10 10 10 10 10 10 11 11 12 12 12 12 13 13 13 13 14 15 15 16 16 16 16 15 15 15 16 16 15 14 14 14 14 14 14 14 15 16 17 17 17 17 17 17 17 17 17 16 16 17
14 14 14 14 14 14 13 13 13 13 12 12 12 12 11 11 12 12 11 10 9 8 8 8 7 7 7 7 7 7 6 6 6 6 7 7 7 7 8 8 9 10 11 11 12 13 13 14 13 13 13 14 14 15 16 16 15 15 15 15 15 14 15 15 14 13 14 14 14 14 14 14 15 16 17 18 18 18 18 17 17 17 17 16 16 17
14 14 14 14 14 13 13 13 12 11 11 10 10 10 10 10 11 11 11 10 9 8 8 8 9 9 9 8 7 7 6 6 5 5 5 5 5 6 6 7 9 10 10 11 12 13 14 15 15 14 14 14 14 15 15 15 15 14 15 14 14 14 14 14 14 13 13 14 14 15 15 15 16 17 17 18 18 18 18 17 17 17 16 16 16 17
15 14 14 14 14 13 13 12 11 11 10 10 10 10 10 11 11 11 11 10 10 9 9 9 9 10 10 9 8 8 7 6 5 5 5 5 5 6 7 7 8 9 10 11 12 13 14 15 15 15 15 14 14 14 15 14 14 14 14 14 14 14 14 14 14 13 13 14 14 14 15 15 16 16 17 18 18 18 18 18 17 16 16 16 16 17
15 14 14 14 14 13 12 12 11 11 10 9 9 10 10 11 12 12 11 10 10 9 9 10 10 10 9 9 8 8 7 6 6 6 5 6 6 6 7 8 8 9 9 10 11 12 13 14 15 16 16 16 16 15 15 14 14 13 13 13 13 14 14 14 14 13 13 13 14 15 15 15 15 16 17 18 18 19 19 19 18 17 16 15 15 16
15 14 14 14 14 13 13 12 11 11 10 10 9 10 10 10 11 11 11 11 10 10 10 10 10 10 9 8 7 6 6 5 5 6 6 6 5 6 7 7 7 8 9 9 10 10 11 11 13 14 15 17 17 17 16 15 14 13 13 13 13 13 14 14 14 13 13 14 14 15 14 15 15 15 16 17 18 19 20 19 18 17 16 15 15 15
15 14 14 14 13 13 12 12 11 11 10 10 10 10 10 10 10 10 10 10 10 10 11 11 10 10 8 7 6 5 5 5 5 6 6 6 6 6 6 6 7 7 7 7 7 7 7 7 8 9 11 14 15 16 16 14 13 13 12 12 12 12 12 13 13 14 14 15 15 15 15 15 15 15 15 16 17 18 19 19 18 17 16 15 15 16
Wind_Direction
259 258 258 260 260 258 258 260 260 258 258 262 266 269 273 276 278 280 282 285 285 283 281 278 276 275 272 268 264 260 255 253 253 254 255 256 258 261 264 268 271 275 278 281 282 282 282 282 282 281 279 278 276 275 273 271 269 268 267 266 265 265 265 266 267 269 270 270 270 270 270 271 273 274 274 275 275 276 275 275 275 276 276 277 278 281
264 261 259 260 259 256 255 257 256 253 253 256 260 263 266 269 273 276 280 281 282 280 277 275 274 273 271 268 263 259 256 254 255 256 257 259 261 263 265 268 271 273 276 277 277 278 279 279 279 279 278 278 277 276 275 273 271 269 268 268 267 268 269 269 269 270 270 271 271 271 272 273 275 276 276 276 276 276 276 276 277 278 279 280 281 284
265 262 260 260 258 255 252 254 254 253 252 253 256 260 263 267 270 273 275 277 277 276 274 273 272 272 271 269 265 260 257 256 256 258 259 261 263 265 267 269 271 272 273 273 274 274 274 275 276 276 277 277 278 277 276 276 275 274 274 273 274 274 275 275 275 275 275 274 274 274 275 276 277 277 277 277 276 276 276 276 277 278 279 280 281 284
261 258 258 259 259 256 253 252 253 253 253 253 256 260 264 266 268 269 270 271 271 271 270 269 270 271 271 270 267 262 259 257 257 259 261 263 264 266 267 267 268 268 268 269 270 270 271 272 272 273 274 275 276 277 277 278 278 279 279 281 282 282 283 283 283 282 281 279 278 278 278 278 278 278 278 278 278 277 277 278 278 278 278 279 280 283
259 253 252 255 256 256 255 253 253 254 255 256 258 262 265 266 266 267 268 268 268 267 267 267 268 268 268 267 266 264 262 260 259 260 261 262 263 263 262 260 258 256 255 256 257 258 260 262 264 266 268 270 272 275 276 277 279 280 282 284 285 287 287 287 287 286 284 283 282 281 280 280 280 280 280 280 281 280 280 280 280 279 279 279 281 283
261 255 252 251 252 252 252 251 252 254 256 259 261 264 264 265 265 266 267 268 267 267 267 266 265 265 264 262 263 264 264 261 260 260 260 261 260 259 257 255 251 248 246 246 247 249 252 255 259 262 264 267 270 272 274 275 277 279 281 284 285 287 288 288 287 286 285 284 283 283 282 282 282 282 283 283 283 283 283 282 282 281 280 280 280 282
265 263 259 255 252 251 250 249 250 251 251 254 258 261 262 263 262 262 262 264 265 265 264 263 262 261 260 260 261 262 263 262 261 261 261 261 260 259 259 258 256 254 252 251 251 252 255 257 260 262 265 267 269 271 272 274 276 278 281 283 285 286 287 287 287 286 285 285 285 285 285 285 285 285 286 286 285 285 285 284 284 283 282 281 282 283
265 267 266 261 257 255 253 251 249 247 246 247 249 252 255 257 257 256 257 258 258 256 255 257 258 257 255 255 257 258 257 258 261 264 266 265 263 262 262 262 262 262 261 260 260 261 262 263 265 266 268 270 271 272 273 275 277 280 282 284 286 287 288 287 287 287 287 287 287 287 287 288 288 288 288 289 288 288 287 287 286 285 284 284 285 286
260 263 265 262 258 254 255 254 252 250 245 242 240 239 239 241 242 245 249 251 249 247 244 244 247 250 250 251 252 251 250 247 248 251 254 256 258 261 263 264 265 266 266 266 267 267 268 269 270 271 273 274 276 276 277 279 281 283 285 287 288 289 289 289 288 288 288 287 287 287 287 287 288 288 288 287 287 287 287 286 285 285 285 286 286 286
256 257 260 260 255 251 249 250 253 253 250 244 237 232 230 230 229 228 230 233 240 243 240 235 232 234 243 250 252 252 252 252 252 252 253 255 258 262 264 266 267 267 268 269 269 270 271 273 274 276 277 279 280 280 281 282 284 286 287 288 289 289 289 288 286 285 284 283 283 283 282 283 283 282 282 282 282 283 283 283 283 283 283 285 285 286
256 255 256 257 255 252 248 244 245 250 253 248 242 238 234 230 229 231 232 228 229 233 236 234 230 227 231 243 252 255 257 261 264 265 265 266 266 267 267 268 268 268 269 270 271 272 273 275 277 278 280 280 281 281 283 284 285 286 287 288 288 288 287 285 284 282 280 279 278 278 278 278 278 278 278 279 279 280 281 282 282 282 282 283 284 284
256 256 254 253 252 250 248 245 247 249 247 240 237 238 235 230 227 229 241 244 235 222 219 228 234 235 235 239 248 256 261 263 265 266 268 270 270 269 269 270 271 272 273 274 275 275 274 275 276 277 278 279 280 281 282 283 284 285 286 286 286 286 285 284 282 280 279 277 277 276 276 276 277 277 278 278 279 280 280 281 282 282 282 282 283 283
253 252 251 251 250 247 242 237 237 236 231 224 226 232 231 225 225 227 234 246 244 227 212 222 236 244 245 246 250 257 262 263 263 262 263 264 264 265 266 269 271 273 274 275 276 275 274 275 275 276 276 276 277 279 280 282 283 283 284 284 284 283 282 281 280 279 278 277 276 276 276 276 277 278 279 280 280 280 281 281 282 282 282 281 281 282
248 246 245 247 247 244 237 229 224 222 220 220 225 228 226 225 227 229 230 238 240 235 231 233 239 249 256 256 257 259 261 262 264 264 262 257 256 259 262 267 269 269 269 269 266 265 268 272 274 275 275 275 276 278 279 281 282 282 282 281 280 279 278 278 278 278 278 278 277 277 277 278 279 280 281 281 282 282 281 282 282 282 282 282 281 281
244 241 240 243 243 240 233 228 227 229 229 224 225 231 237 239 234 229 226 231 235 237 239 244 247 250 255 259 261 261 260 259 261 265 263 257 256 261 267 271 273 272 270 264 259 259 265 270 272 273 276 276 277 278 280 281 282 281 281 280 279 278 277 278 278 279 279 279 279 279 279 280 281 281 282 282 282 282 281 282 282 281 281 282 281 281
241 235 238 242 243 240 232 224 226 233 235 233 235 239 240 236 231 227 223 230 231 230 235 247 254 252 247 256 260 260 255 252 256 265 267 261 261 266 273 277 277 274 270 264 259 259 266 270 273 275 277 279 280 282 283 283 283 282 281 280 279 279 280 281 282 282 282 282 281 282 282 283 282 282 282 282 281 280 280 280 280 280 281 281 281 281
235 231 236 242 244 241 234 226 226 230 236 241 245 244 238 230 226 225 224 228 228 228 234 243 253 256 243 236 248 252 243 243 254 268 274 268 266 270 277 280 276 268 266 264 261 262 267 271 275 279 282 284 286 287 287 286 284 282 281 279 279 280 282 283 283 283 283 283 283 284 284 284 283 282 281 281 281 281 281 281 281 281 282 281 281 281
233 230 232 237 241 240 234 229 230 234 238 242 245 244 238 231 227 226 223 223 226 231 237 239 242 250 259 245 235 232 235 244 264 278 279 273 268 271 279 283 280 272 266 263 264 266 270 274 278 283 286 288 290 290 288 286 283 281 278 276 276 277 278 279 279 279 280 284 286 285 284 284 283 283 283 283 283 283 283 283 283 283 283 283 282 282
233 230 230 233 237 238 235 232 232 234 235 237 238 237 234 231 229 225 222 223 225 230 235 238 239 244 255 261 252 245 255 267 280 285 278 276 270 271 281 286 285 278 269 264 263 267 273 279 285 288 290 290 290 288 286 283 279 274 269 266 266 267 268 270 273 277 280 283 285 285 284 284 285 285 285 285 284 283 284 284 284 284 283 283 282 282
235 231 228 229 232 236 238 236 235 234 233 234 234 231 226 227 225 223 222 223 225 228 231 236 240 244 247 249 257 269 272 280 286 285 276 276 271 271 280 286 284 277 270 266 267 272 279 286 291 294 294 292 289 286 283 278 271 262 253 249 250 254 259 267 274 279 282 283 284 285 286 286 285 285 285 285 284 285 286 286 286 285 285 284 284 283
236 234 230 226 227 232 238 239 237 235 236 236 233 228 224 222 220 219 220 220 221 224 228 233 240 243 241 238 248 264 273 280 284 282 280 280 273 268 274 280 279 274 272 272 275 280 286 292 296 298 298 294 289 284 279 271 259 244 233 233 240 248 259 270 278 283 285 286 287 287 287 287 286 286 286 287 287 287 287 287 287 286 286 285 284 284
234 236 234 229 227 230 238 242 239 238 241 239 231 223 222 219 218 220 222 219 217 220 224 230 236 238 236 236 248 261 271 274 272 271 284 283 272 262 263 277 282 279 277 278 281 285 291 296 300 301 300 295 289 283 275 261 240 222 218 226 239 252 267 278 286 290 292 292 291 290 290 289 289 288 288 288 288 288 288 287 287 287 286 285 285 284
232 237 237 233 231 233 237 238 239 242 244 240 232 226 226 222 220 218 217 215 214 216 221 226 235 243 249 252 258 265 269 268 265 265 272 273 269 263 266 284 290 286 279 282 285 289 293 297 300 301 299 294 288 281 268 246 222 209 214 227 242 261 279 291 296 298 297 295 293 292 292 292 291 290 289 289 290 290 289 289 288 288 288 287 286 285
232 236 239 238 239 241 242 241 242 243 243 238 231 227 226 225 221 217 215 215 215 218 224 234 246 257 261 262 262 263 265 264 262 258 252 261 267 273 282 291 292 287 283 285 288 292 295 296 298 298 295 290 285 277 260 233 214 208 216 231 251 274 292 301 303 302 298 293 291 290 291 292 292 292 292 291 291 291 291 291 290 290 290 289 288 287
233 236 239 242 245 247 246 243 242 242 240 236 233 231 229 226 224 222 222 219 217 218 226 239 252 255 250 239 233 244 257 260 257 250 241 259 270 273 278 286 289 288 288 290 293 295 295 293 293 291 286 282 280 272 254 230 216 214 222 240 267 290 303 306 305 301 296 291 289 288 289 290 291 292 292 292 291 291 291 291 291 291 290 289 288 287
238 239 241 244 246 245 242 240 239 238 237 235 232 229 224 220 216 214 212 210 210 209 213 228 240 241 235 234 232 238 247 255 256 249 241 256 271 274 271 280 286 289 292 295 296 294 290 287 285 281 273 270 272 268 250 232 224 224 235 258 284 300 307 308 305 300 295 292 291 291 291 291 291 291 291 291 291 291 291 291 291 291 290 290 289 287
242 242 243 243 241 238 235 233 232 232 232 231 230 226 219 211 204 198 196 199 199 199 208 229 241 244 238 237 238 238 237 250 255 252 244 247 261 270 269 278 292 297 297 296 293 289 282 277 276 273 263 259 264 263 250 236 231 237 252 275 293 303 307 307 303 299 295 295 296 297 296 295 293 292 291 291 292 292 291 291 291 291 291 291 290 288
238 238 237 235 233 230 227 226 225 225 224 224 224 221 215 206 197 193 197 199 198 199 211 227 238 245 246 243 243 239 232 238 249 251 244 235 244 260 267 285 297 299 298 298 295 288 276 267 264 263 258 255 258 257 250 241 241 251 270 286 297 304 307 307 304 301 300 301 302 303 302 299 296 293 291 291 291 291 291 291 292 292 292 291 290 288
229 228 227 224 222 220 219 218 218 218 218 218 217 215 212 206 202 201 203 200 196 198 212 225 233 241 249 255 261 258 246 232 239 244 235 227 239 256 270 286 295 298 303 304 302 293 273 255 249 251 254 255 255 254 252 252 259 271 283 293 300 305 308 309 308 307 306 307 308 308 306 304 300 295 292 290 289 289 289 290 292 293 293 290 288 286
214 213 212 211 211 210 210 210 211 212 214 214 213 212 211 208 207 207 207 203 198 198 213 223 230 234 241 255 265 263 246 227 229 231 221 218 238 263 276 283 289 298 312 316 312 298 275 247 239 247 261 264 262 261 262 267 274 282 288 294 300 304 308 310 311 311 312 312 312 311 309 306 303 299 295 291 288 287 287 289 291 292 291 288 286 284
200 198 198 200 202 202 203 203 205 206 209 210 211 212 213 212 211 212 212 207 202 204 216 224 227 228 228 236 248 251 233 205 219 229 221 217 239 269 281 284 288 297 311 319 320 305 295 265 240 252 279 282 275 270 268 272 276 281 286 291 296 300 304 308 311 312 313 313 312 310 309 307 305 303 299 295 291 289 287 287 288 289 288 286 284 283
195 194 195 199 201 202 202 200 200 200 202 205 208 212 215 217 217 217 216 212 209 210 217 225 228 228 228 231 239 250 252 215 230 242 240 232 247 267 277 280 286 292 296 290 279 278 292 293 287 286 290 286 282 277 272 271 273 276 281 287 291 295 300 305 308 309 309 308 308 307 307 307 306 304 302 300 297 294 290 288 286 285 284 284 283 282
195 196 198 202 204 204 204 202 201 200 201 204 208 211 215 218 219 219 218 217 215 215 219 224 228 230 232 235 241 250 259 248 244 246 248 241 249 265 272 274 280 284 287 278 268 263 268 277 287 291 291 287 285 282 278 274 272 273 277 282 286 291 296 301 304 304 304 304 304 304 305 305 304 304 303 302 300 298 296 292 288 283 280 281 282 282
197 198 200 202 203 204 205 204 204 204 205 208 210 212 215 217 218 218 219 220 220 220 220 224 227 230 232 236 242 247 253 249 236 235 247 237 239 257 268 270 273 278 282 280 275 271 270 273 280 288 292 291 289 285 281 276 272 270 274 279 283 288 293 298 300 300 300 300 301 301 302 302 302 301 300 299 299 297 296 293 288 283 279 278 279 281
198 200 201 202 202 202 203 204 205 206 208 211 213 215 216 217 217 218 220 223 224 225 225 227 229 231 232 235 239 244 247 243 230 227 241 232 236 253 264 265 268 273 279 279 279 279 279 278 282 288 294 295 293 288 282 277 273 275 279 283 286 288 291 293 294 293 294 294 294 295 296 298 298 297 296 294 293 292 291 289 287 283 280 277 275 275
199 200 201 200 200 200 201 202 203 205 207 209 212 214 216 216 217 219 221 225 228 230 231 233 234 234 235 236 239 243 246 244 234 228 233 233 240 251 261 264 266 271 274 276 278 279 282 284 287 288 290 291 291 290 286 282 281 283 285 287 288 288 288 288 288 288 288 288 288 289 291 293 294 293 292 290 289 288 288 288 287 287 285 282 277 272
200 201 201 200 199 199 200 201 202 204 206 206 207 210 212 213 215 219 224 229 232 234 235 237 238 239 240 240 242 244 248 249 245 240 238 240 245 252 259 264 267 268 270 274 277 280 283 286 288 288 285 282 283 288 292 294 294 292 290 290 291 290 288 286 286 285 284 284 284 285 288 290 291 291 290 290 289 289 289 289 289 289 288 285 281 276
201 202 202 202 201 200 200 201 203 204 205 204 205 207 208 210 215 222 229 234 235 235 234 236 239 241 241 242 243 245 247 249 248 247 248 248 249 252 258 264 268 268 267 269 274 278 281 283 286 287 286 283 283 286 292 297 298 296 294 294 293 291 288 287 286 286 285 284 284 285 286 288 289 290 291 291 292 291 290 289 288 287 286 285 282 278
201 203 204 204 204 202 201 202 203 204 204 205 205 207 209 212 217 222 228 234 236 234 232 233 237 241 244 245 247 247 248 250 251 252 253 252 251 252 256 263 267 268 268 268 269 271 273 274 276 279 285 288 289 290 292 294 295 296 298 299 296 292 288 288 288 288 287 286 287 287 287 288 289 290 291 292 292 290 289 289 289 288 287 287 285 282
201 204 205 205 204 204 203 204 203 203 203 205 208 211 213 216 219 223 230 236 238 237 236 237 241 245 249 251 251 251 251 253 255 256 257 256 255 255 256 260 265 268 269 268 266 265 266 268 271 273 276 281 286 289 291 290 291 294 298 299 297 293 292 292 291 289 287 285 285 286 287 289 289 289 289 289 289 289 289 290 290 289 289 288 288 288
203 205 206 206 205 205 205 204 203 203 203 205 209 213 213 215 217 222 230 235 237 237 238 241 245 250 254 255 255 255 254 255 256 257 258 258 259 259 258 258 261 264 266 267 265 264 263 266 269 272 274 277 281 284 285 286 287 290 293 292 291 291 293 292 290 287 284 282 282 283 286 289 291 290 289 289 289 288 288 288 288 288 287 286 285 284
203 205 206 205 204 203 203 202 202 203 206 208 207 208 210 211 214 219 225 228 231 233 236 238 242 246 249 253 256 255 254 254 254 254 255 256 257 258 258 257 257 258 261 264 264 264 263 265 267 270 273 276 280 283 284 285 286 287 287 287 289 293 295 292 288 285 283 283 285 287 289 290 291 290 290 289 289 288 288 287 286 285 284 283 281 279
201 203 203 202 200 199 198 199 201 205 207 207 207 209 211 213 215 218 220 220 222 224 226 228 232 237 244 251 252 251 250 251 252 253 254 255 256 256 255 253 253 255 258 261 265 267 267 267 267 269 271 275 277 280 282 285 286 286 285 285 289 292 293 293 292 292 290 288 289 290 291 291 291 291 290 290 289 289 289 287 285 283 281 280 278 277
199 200 200 198 197 196 196 198 201 205 207 208 208 209 211 213 215 216 216 218 219 219 217 219 225 235 245 251 254 254 250 249 249 250 252 253 253 251 249 249 251 255 258 261 266 271 273 272 270 269 271 273 275 277 279 282 284 285 284 284 284 284 283 287 291 294 293 291 290 291 291 292 293 293 292 291 290 290 289 288 286 283 281 279 278 276
194 196 196 195 193 192 193 197 201 204 206 206 206 207 208 212 213 214 214 218 221 222 221 221 227 237 246 249 251 251 249 245 243 243 245 247 247 246 246 248 253 258 261 262 265 268 272 273 274 274 274 274 273 274 276 279 281 283 283 283 282 280 279 282 286 289 290 291 291 292 293 295 296 296 295 293 291 290 289 288 286 285 283 282 280 278
192 193 194 192 191 191 193 196 198 198 199 201 203 205 208 211 214 216 217 220 224 226 227 228 231 238 244 246 246 246 244 240 233 228 228 231 235 240 245 250 256 261 264 266 267 267 267 269 272 276 278 277 274 272 271 274 277 280 282 283 283 282 282 283 284 285 288 290 292 293 295 298 299 298 295 294 292 291 290 288 286 285 284 283 281 279
190 189 189 188 189 190 192 192 191 191 193 198 202 207 211 214 216 218 219 222 225 228 232 233 235 238 241 243 244 245 244 242 234 226 223 227 235 245 255 261 265 267 268 269 270 268 267 267 268 271 274 276 275 273 271 271 272 275 279 282 284 284 284 285 285 286 287 289 291 293 297 300 300 298 295 295 294 292 291 289 287 285 284 283 282 280
188 188 187 186 186 187 187 187 187 189 194 200 206 212 215 215 215 216 218 220 224 228 232 234 234 235 237 240 242 244 246 248 248 248 250 254 261 265 269 272 275 275 275 274 273 271 269 267 265 264 263 264 267 270 272 271 271 272 275 279 282 284 284 285 286 287 288 288 289 291 295 297 297 297 297 297 296 293 292 291 289 287 284 283 282 281
190 188 187 185 185 186 186 186 188 191 197 201 208 213 214 212 210 210 214 219 223 227 230 232 232 233 234 237 239 241 243 247 253 259 263 267 272 274 276 278 280 283 283 281 278 276 273 270 265 259 255 254 256 262 267 270 271 272 275 278 280 282 283 285 287 289 290 290 291 291 293 293 293 294 296 295 294 292 291 291 290 289 286 284 282 281
190 189 186 184 184 186 187 187 189 193 198 201 204 206 206 205 205 208 213 219 223 226 229 230 232 233 236 238 239 240 240 246 255 261 266 270 273 277 278 281 284 287 287 286 284 282 282 279 273 264 256 250 249 252 259 266 271 274 276 277 278 280 283 285 288 290 292 293 294 294 293 293 292 291 291 290 290 290 291 290 290 289 289 287 285 282
189 188 185 183 183 184 186 188 191 196 201 203 203 203 204 204 205 208 213 217 220 223 227 230 233 235 237 240 241 241 244 251 259 265 268 271 275 277 279 280 282 283 285 286 288 289 291 291 288 280 269 252 245 245 249 259 269 276 279 279 280 282 284 286 289 291 292 293 294 295 295 294 292 290 288 287 288 289 290 290 290 289 290 290 289 286